Location: North Fort Myers
(26.6673°N, 81.8801°W)
Time: 14:29:22
(UTC+00:00)

Envisat - Pass Details

Date: 19 August 2022
Orbit: 764 x 765 km, 98.2° (Epoch: 26 September)

Event Time Altitude Azimuth Distance (km) Brightness Sun altitude
Rises 08:44:05 0° 34° (NNE) 3,228 7.2 -28.8°
Reaches altitude 10° 08:47:04 10° 52° (NE) 2,298 6.4 -28.3°
Maximum altitude 08:50:34 19° 96° (E) 1,767 5.4 -27.6°
Drops below altitude 10° 08:54:03 10° 140° (SE) 2,290 5.5 -26.9°
Enters shadow 08:56:22 - 155° (SSE) 2,995 6.0 -26.5°
